Other Public Products
Issued by NWS Grand Forks, ND

Home | Current Version | Previous Version | Graphics & Text | Print | Product List | Glossary On
Versions: 1 2 3 4 5 6 7 8 9 10 11 12 13 14 15 16 17 18 19 20 21 22 23 24 25 26 27 28 29 30 31 32 33 34 35 36 37 38 39 40 41 42 43 44 45 46 47 48 49 50
524
FPUS83 KFGF 301610
OPUFGF
PRAIRIE TO PINES WEATHER ROUNDUP
NATIONAL WEATHER SERVICE EASTERN NORTH DAKOTA/GRAND FORKS ND
1100 AM CDT THU MAR 30 2017

 **SATELLITE DATA USED TO AUGMENT SKY COVER AT AUTOMATED STATIONS**
 *****  WEATHER ACROSS EASTERN NORTH DAKOTA  *****

CITY           SKY/WX    TMP DP  RH WIND       PRES   REMARKS
GRAND FORKS    FAIR      48  41  76 S15       29.91F
GRAND FORKS AF CLOUDY    48  38  68 S16       29.91S
GRAND CITY NWS NOT AVBL
BUXTON         NOT AVBL
DEVILS LAKE    CLOUDY    45  36  70 S17       29.86S
FARGO          FAIR      46  40  79 E6        29.93S
WAHPETON ARPT  PTSUNNY   45  36  70 SE8       29.92F
$$

 *****  WEATHER ACROSS CENTRAL AND WESTERN NORTH DAKOTA  *****

CITY           SKY/WX    TMP DP  RH WIND       PRES   REMARKS
JAMESTOWN      CLOUDY    41  37  86 S13       29.88F
BISMARCK       FAIR      44  35  70 S17       29.84F
MINOT          CLOUDY    48  37  65 S12       29.76R
MINOT AFB      FAIR      47  38  71 S9        29.75R
GARRISON         N/A     44  35  70 S9        29.77F
WILLISTON      CLOUDY    51  39  63 E6        29.71S
DICKINSON      CLOUDY    46  38  73 S12       29.72S
HETTINGER      CLOUDY    43  35  73 SE14      29.77R
$$

 *****  OTHER OBSERVATIONS NORTHEAST NORTH DAKOTA  *****

CITY           SKY/WX    TMP DP  RH WIND       PRES   REMARKS
WALHALLA       NOT AVBL
LANGDON        PTSUNNY   41  41 100 S20       29.85R
CAVALIER       CLOUDY    43  39  87 S8        29.88R
GRAFTON        FAIR      46  39  76 S17       29.91F
CANDO          NOT AVBL
FORT TOTTEN      N/A     46  40  81 S14       29.95S
ROLLA          CLOUDY    37  37 100 S13       29.82R
RUGBY          NOT AVBL
 ***** THE ABOVE OBSERVATIONS ARE NON NWS ARE NOT QUALITY
        CONTROLLED AND MAY MIS-REPORT RAIN FOR SNOW...
$$

 *****  OTHER OBSERVATIONS SOUTHEAST NORTH DAKOTA *****

CITY           SKY/WX    TMP DP  RH WIND       PRES   REMARKS
COOPERSTOWN    FAIR      46  39  76 S16       29.90S
VALLEY CITY    CLOUDY    43  41  93 S13       29.92S
OAKES          NOT AVBL
GWINNER        CLOUDY    41  37  87 MISG      29.92R
SHEYENNE NWR     N/A     43  38  82 SE9       29.95S
BUFFALO        NOT AVBL
WYNDMERE       NOT AVBL
 ***** THE ABOVE OBSERVATIONS ARE NON NWS ARE NOT QUALITY
       CONTROLLED AND MAY MIS-REPORT RAIN FOR SNOW...
$$

  *****  WEATHER ACROSS NORTHERN MINNESOTA  *****

CITY           SKY/WX    TMP DP  RH WIND       PRES   REMARKS
FLAG ISLAND    FAIR      34  30  86 SE9       29.95S
WARROAD        FAIR      45  39  81 SW7       29.95S
ROSEAU         FAIR      46  39  76 S7        29.94S
HALLOCK        PTSUNNY   43  39  87 S14       29.91S
THF RVR FALLS  CLOUDY    39  37  93 S8        29.95S
HALSTAD          N/A     39  37  94 SE7         N/A
FOSSTON        CLOUDY    37  37 100 CALM      29.95S FOG
BAUDETTE       FAIR      44  34  67 VRB7      29.95F
WASKISH        FAIR      48  37  66 CALM      29.95F
CROOKSTON      PTSUNNY   43  39  87 S10       29.94F
$$
  *****  WEATHER ACROSS CENTRAL AND WEST MINNESOTA  *****

CITY           SKY/WX    TMP DP  RH WIND       PRES   REMARKS
BEMIDJI        FAIR      36  35  96 CALM      29.96F
PARK RAPIDS    FAIR      45  33  63 VRB5      29.93S
WADENA         FAIR      45  34  65 E12       29.92S
DETROIT LAKES  FAIR      43  36  75 E6        29.93F
MOORHEAD       FAIR      45  37  76 SE6       29.94F
FERGUS FALLS   FAIR      45  36  70 SE12      29.94F
ELBOW LAKE     FAIR      45  36  69 SE10      29.91F HAZE
MORRIS MN      PTSUNNY   46  37  71 E20       29.89F
STAPLES        FAIR      45  32  61 E7        29.93F
WHEATON        FAIR      46  36  66 E13G18    29.93S
$$
  *****  WEATHER ELSEWHERE ACROSS MINNESOTA  *****

CITY           SKY/WX    TMP DP  RH WIND       PRES   REMARKS
DULUTH         FAIR      42  31  64 SE13      29.97F
INTRNTL FALLS  FAIR      44  31  60 CALM      29.98F
ELY            FAIR      43  28  56 E6        29.99F
CLOQUET        FAIR      37  30  75 E10       29.97F
BRAINERD       FAIR      42  32  67 E8        29.95F
HIBBING        FAIR      42  30  62 SE6       29.97F
ALEXANDRIA     PTSUNNY   44  33  65 E17       29.91F
SAINT CLOUD    CLOUDY    41  32  70 E12       29.91F
MINNEAPOLIS    CLOUDY    41  33  73 E15       29.89F
$$

  *****  WEATHER ACROSS SOUTH DAKOTA  *****

CITY           SKY/WX    TMP DP  RH WIND       PRES   REMARKS
SIOUX FALLS    DRIZZLE   40  38  93 E16       29.83F
BROOKINGS      CLOUDY    38  35  89 E13       29.85S
WATERTOWN      CLOUDY    38  35  89 E9        29.87S
HURON          CLOUDY    41  35  79 E8        29.89R
SISSETON         N/A     44  37  76 SE9       29.89F
ABERDEEN       CLOUDY    41  34  76 E3        29.90F
MITCHELL       CLOUDY    42  35  76 NE8       29.88R
PIERRE         CLOUDY    40  34  79 SE12      29.86S
MOBRIDGE       CLOUDY    43  34  70 SE12      29.83F
RAPID CITY     FAIR      40  39  97 SE10      29.76S
$$

  *****  SOME WEATHER IN NEARBY STATES *****

CITY           SKY/WX    TMP DP  RH WIND       PRES   REMARKS
GLASGOW MT     FAIR      50  34  54 CALM      29.69S
GREAT FALLS MT FAIR      49  34  56 W8        29.72S
CHEYENNE WY    PTSUNNY   50  30  46 W12       29.79F
SCOTTSBLUFF NE FAIR      41  36  82 SE3       29.77F
OMAHA NE       CLOUDY    43  38  82 N18       29.71S
DES MOINES IA  DRIZZLE   44  42  93 NE18      29.66F FOG
DAVENPORT IA   CLOUDY    44  42  93 E14       29.68R
CHICAGO IL     LGT RAIN  43  40  89 E14       29.71F
EAU CLAIRE WI  CLOUDY    39  34  82 NE16G23   29.89F
LA CROSSE WI   CLOUDY    40  36  86 NE10G22   29.84F
$$

  *****  SOME NATIONAL WEATHER *****

CITY           SKY/WX    TMP DP  RH WIND       PRES   REMARKS
LA GUARDIA NY  PTSUNNY   46  22  38 NW5       30.22F
RALEIGH NC     CLOUDY    58  39  49 E9        30.17F
ATLANTA GA     CLOUDY    73  54  51 SW9       30.00F
NEW ORLEANS LA TSTM      63  60  90 SE5       29.95R FOG
OKLAHOMA CITY  PTSUNNY   54  41  61 NW23G29   29.77F
ALBUQUERQUE NM FAIR      47  38  71 SW8       30.01S
SALT LAKE CITY LGT RAIN  47  42  83 NW14      29.78R
LOS ANGELES CA FAIR      62  57  83 SE6       29.94F
BOISE ID       LGT SNOW  34  34 100 NW24G36   29.73S VSB 3/4 WCI  21
SEATTLE WA     CLOUDY    44  40  85 S9        30.14R
$$

*** WEATHER ACROSS MANITOBA...SASKATCHEWAN AND ONTARIO ***
                ***ONTARIO***

CITY           SKY/WX    TMP DP  RH WIND       PRES   REMARKS
GERALDTON      MOSUNNY   39  21  48 SE8       30.11F
THUNDER BAY    PTSUNNY   41  30  65 E13G18    30.10S
SIOUX LOOKOUT  PTSUNNY   41  27  56 S8        29.98F
TORONTO        CLOUDY    37  23  56 E20G26    30.19F
BIG TROUT LK   LGT RAIN  36  30  80 S14       29.91F
PICKLE LAKE    PTSUNNY   39  23  52 S6        29.97F
DRYDEN         PTSUNNY   41  30  65 S9        29.97F
KENORA         NOT AVBL
$$
                *** MANITOBA***

CITY           SKY/WX    TMP DP  RH WIND       PRES   REMARKS
BRANDON        PTSUNNY   41  37  87 SE2       29.78S
DAUPHIN        FOG       32  30  93 N6        29.82S VSB 1/8
ISLAND LAKE    DRIZZLE   36  36 100 W3        29.81S FOG
PILOT MOUND      N/A     41  37  87 S20         N/A
THE PAS        FOG       34  32  93 N5        29.85R VSB 1/4
THOMPSON       CLOUDY    34  30  86 NE9       29.88R
WINNIPEG       PTSUNNY   45  39  81 S23G29    29.86S
LYNN LAKE      MOSUNNY   36  25  64 NE3       29.91S
CHURCHILL      PTSUNNY   12  10  92 NE9       30.05S WCI   0
GILLAM         CLOUDY    30  23  74 NE9       29.90S WCI  22
$$
                ***SASKATCHEWAN***

CITY           SKY/WX    TMP DP  RH WIND       PRES   REMARKS
ESTEVAN        PTSUNNY   48  37  66 E8        29.72F
KINDERSLEY     MOSUNNY   41  36  81 E18       29.70R
LLOYDMINSTER   CLOUDY    32  32 100 E10       29.80R FOG     WCI  24
PRINCE ALBERT  CLOUDY    36  32  87 NE9       29.86R
REGINA         LGT RAIN  46  34  61 E7        29.72S
YORKTON        FOG       32  32 100 NE5       29.78S V



USA.gov is the U.S. government's official web portal to all federal, state and local government web resources and services.